When you browse on this site, cookies collect data to enhance your experience and personalize the content and advertising you see.
Visit our Privacy Policy to learn more. By continuing to use the site, you agree to this use of cookies and data.

Stündliche Wetter Berlin

Heute, 13 Juli, Montag

Zeit Temperatur Niederschläge Wind Luftdruck Luftfeuchtigkeit
00:00 +14°C° 0 mm 1 m/S 766 mmHg 78%
01:00 +12°C° 0 mm 0 m/S 766 mmHg 79%
02:00 +12°C° 0 mm 0 m/S 766 mmHg 81%
03:00 +11°C° 0 mm 0 m/S 765 mmHg 82%
04:00 +11°C° 0 mm 0 m/S 765 mmHg 83%
05:00 +14°C° 0 mm 1 m/S 765 mmHg 77%
06:00 +15°C° 0 mm 1 m/S 765 mmHg 71%
07:00 +18°C° 0 mm 1 m/S 765 mmHg 66%
08:00 +19°C° 0 mm 1 m/S 765 mmHg 60%
09:00 +21°C° 0 mm 1 m/S 765 mmHg 53%
10:00 +21°C° 0 mm 2 m/S 764 mmHg 47%
11:00 +23°C° 0 mm 2 m/S 764 mmHg 45%
12:00 +24°C° 0 mm 2 m/S 764 mmHg 42%
13:00 +24°C° 0 mm 2 m/S 764 mmHg 43%
14:00 +24°C° 0 mm 2 m/S 763 mmHg 44%
15:00 +24°C° 0 mm 2 m/S 763 mmHg 45%
16:00 +24°C° 0 mm 2 m/S 762 mmHg 46%
17:00 +23°C° 0 mm 2 m/S 762 mmHg 49%
18:00 +23°C° 0 mm 1 m/S 762 mmHg 53%
19:00 +22°C° 0 mm 1 m/S 761 mmHg 56%
20:00 +21°C° 0 mm 1 m/S 761 mmHg 58%
21:00 +18°C° 0 mm 0 m/S 761 mmHg 61%
22:00 +17°C° 0 mm 0 m/S 761 mmHg 63%
23:00 +16°C° 0 mm 0 m/S 761 mmHg 66%

Morgen, 14 Juli, Dienstag

Zeit Temperatur Niederschläge Wind Luftdruck Luftfeuchtigkeit
00:00 +16°C° 0 mm 0 m/S 761 mmHg 68%
01:00 +16°C° 0 mm 1 m/S 761 mmHg 71%
02:00 +16°C° 0 mm 1 m/S 760 mmHg 72%
03:00 +15°C° 0 mm 1 m/S 760 mmHg 74%
04:00 +15°C° 0 mm 1 m/S 759 mmHg 75%
05:00 +16°C° 0 mm 2 m/S 759 mmHg 71%
06:00 +18°C° 0 mm 2 m/S 759 mmHg 66%
07:00 +19°C° 0 mm 2 m/S 759 mmHg 62%
08:00 +21°C° 0 mm 2 m/S 759 mmHg 56%
09:00 +24°C° 0 mm 3 m/S 758 mmHg 51%
10:00 +25°C° 0 mm 3 m/S 758 mmHg 45%
11:00 +26°C° 0 mm 3 m/S 758 mmHg 43%
12:00 +27°C° 0 mm 3 m/S 757 mmHg 40%
13:00 +27°C° 0 mm 3 m/S 757 mmHg 38%
14:00 +28°C° 0 mm 3 m/S 757 mmHg 37%
15:00 +28°C° 0 mm 3 m/S 756 mmHg 37%
16:00 +28°C° 0 mm 3 m/S 756 mmHg 36%
17:00 +26°C° 0 mm 3 m/S 756 mmHg 44%
18:00 +25°C° 0 mm 2 m/S 756 mmHg 51%
19:00 +23°C° 0 mm 2 m/S 756 mmHg 59%
20:00 +21°C° 0.2 mm 2 m/S 756 mmHg 66%
21:00 +19°C° 0.2 mm 2 m/S 756 mmHg 74%
22:00 +18°C° 0.2 mm 2 m/S 756 mmHg 81%
23:00 +17°C° 0.3 mm 2 m/S 756 mmHg 83%

übermorgen, 15 Juli, Mittwoch

Zeit Temperatur Niederschläge Wind Luftdruck Luftfeuchtigkeit
00:00 +18°C° 0.3 mm 1 m/S 756 mmHg 85%
01:00 +18°C° 0.3 mm 1 m/S 756 mmHg 88%
02:00 +16°C° 0.2 mm 1 m/S 756 mmHg 88%
03:00 +16°C° 0.2 mm 1 m/S 755 mmHg 89%
04:00 +16°C° 0.2 mm 1 m/S 755 mmHg 90%
05:00 +18°C° 0.3 mm 1 m/S 755 mmHg 89%
06:00 +18°C° 0.3 mm 1 m/S 755 mmHg 89%
07:00 +17°C° 0.3 mm 2 m/S 755 mmHg 88%
08:00 +17°C° 0.7 mm 2 m/S 755 mmHg 88%
09:00 +17°C° 0.7 mm 2 m/S 755 mmHg 87%
10:00 +17°C° 0.7 mm 2 m/S 755 mmHg 87%
11:00 +17°C° 0.5 mm 2 m/S 755 mmHg 86%
12:00 +17°C° 0.5 mm 2 m/S 755 mmHg 86%
13:00 +17°C° 0.5 mm 2 m/S 755 mmHg 85%
14:00 +18°C° 0.1 mm 2 m/S 755 mmHg 82%
15:00 +19°C° 0.1 mm 2 m/S 755 mmHg 78%
16:00 +19°C° 0.1 mm 2 m/S 755 mmHg 74%
17:00 +19°C° 0.5 mm 2 m/S 755 mmHg 77%
18:00 +19°C° 0.5 mm 1 m/S 755 mmHg 79%
19:00 +19°C° 0.5 mm 1 m/S 755 mmHg 81%
20:00 +17°C° 0.8 mm 2 m/S 756 mmHg 83%
21:00 +17°C° 0.8 mm 2 m/S 756 mmHg 85%
22:00 +16°C° 0.8 mm 2 m/S 756 mmHg 87%
23:00 +14°C° 0.2 mm 3 m/S 756 mmHg 89%

16 Juli, Donnerstag

Zeit Temperatur Niederschläge Wind Luftdruck Luftfeuchtigkeit
00:00 +14°C° 0.2 mm 3 m/S 756 mmHg 90%
01:00 +13°C° 0.2 mm 3 m/S 757 mmHg 91%
02:00 +12°C° 0 mm 3 m/S 757 mmHg 92%
03:00 +12°C° 0 mm 3 m/S 757 mmHg 93%
04:00 +11°C° 0 mm 3 m/S 757 mmHg 93%
05:00 +12°C° 0 mm 3 m/S 757 mmHg 90%
06:00 +13°C° 0 mm 4 m/S 757 mmHg 87%
07:00 +14°C° 0 mm 4 m/S 758 mmHg 84%
08:00 +15°C° 0 mm 4 m/S 758 mmHg 76%
09:00 +17°C° 0 mm 4 m/S 758 mmHg 67%
10:00 +19°C° 0 mm 5 m/S 758 mmHg 59%
11:00 +19°C° 0.2 mm 5 m/S 758 mmHg 57%
12:00 +20°C° 0.2 mm 5 m/S 758 mmHg 55%
13:00 +20°C° 0.2 mm 5 m/S 758 mmHg 54%
14:00 +21°C° 0.1 mm 5 m/S 758 mmHg 52%
15:00 +21°C° 0.1 mm 4 m/S 758 mmHg 51%
16:00 +22°C° 0.1 mm 4 m/S 758 mmHg 50%
17:00 +21°C° 0.2 mm 3 m/S 758 mmHg 56%
18:00 +20°C° 0.2 mm 3 m/S 758 mmHg 63%
19:00 +19°C° 0.2 mm 2 m/S 758 mmHg 69%
20:00 +18°C° 0 mm 2 m/S 758 mmHg 74%
21:00 +17°C° 0 mm 2 m/S 758 mmHg 78%
22:00 +16°C° 0 mm 2 m/S 759 mmHg 83%
23:00 +15°C° 0 mm 2 m/S 759 mmHg 85%

17 Juli, Freitag

Zeit Temperatur Niederschläge Wind Luftdruck Luftfeuchtigkeit
00:00 +15°C° 0 mm 2 m/S 759 mmHg 87%
01:00 +14°C° 0 mm 2 m/S 759 mmHg 90%
02:00 +14°C° 0 mm 2 m/S 759 mmHg 90%
03:00 +13°C° 0 mm 2 m/S 758 mmHg 91%
04:00 +13°C° 0 mm 2 m/S 758 mmHg 92%
05:00 +13°C° 0 mm 3 m/S 759 mmHg 88%
06:00 +14°C° 0 mm 3 m/S 759 mmHg 85%
07:00 +16°C° 0 mm 3 m/S 759 mmHg 81%
08:00 +18°C° 0 mm 4 m/S 759 mmHg 74%
09:00 +19°C° 0 mm 4 m/S 759 mmHg 66%
10:00 +21°C° 0 mm 4 m/S 759 mmHg 59%
11:00 +21°C° 0 mm 4 m/S 759 mmHg 57%
12:00 +22°C° 0 mm 4 m/S 759 mmHg 56%
13:00 +23°C° 0 mm 4 m/S 759 mmHg 55%
14:00 +23°C° 0 mm 4 m/S 759 mmHg 55%
15:00 +23°C° 0 mm 4 m/S 759 mmHg 55%
16:00 +23°C° 0 mm 5 m/S 758 mmHg 55%
17:00 +23°C° 0 mm 4 m/S 759 mmHg 58%
18:00 +22°C° 0 mm 4 m/S 759 mmHg 62%
19:00 +21°C° 0 mm 3 m/S 759 mmHg 66%
20:00 +20°C° 0 mm 3 m/S 759 mmHg 71%
21:00 +18°C° 0 mm 3 m/S 759 mmHg 75%
22:00 +17°C° 0 mm 2 m/S 760 mmHg 80%
23:00 +16°C° 0 mm 2 m/S 760 mmHg 82%

18 Juli, Samstag

Zeit Temperatur Niederschläge Wind Luftdruck Luftfeuchtigkeit
00:00 +16°C° 0 mm 2 m/S 760 mmHg 83%
01:00 +15°C° 0 mm 2 m/S 760 mmHg 85%
02:00 +15°C° 0 mm 2 m/S 760 mmHg 86%
03:00 +15°C° 0 mm 2 m/S 760 mmHg 87%
04:00 +15°C° 0 mm 2 m/S 760 mmHg 88%
05:00 +16°C° 0 mm 2 m/S 760 mmHg 84%
06:00 +17°C° 0 mm 2 m/S 760 mmHg 80%
07:00 +18°C° 0 mm 2 m/S 760 mmHg 76%
08:00 +21°C° 0 mm 1 m/S 760 mmHg 69%
09:00 +22°C° 0 mm 1 m/S 760 mmHg 62%
10:00 +24°C° 0 mm 1 m/S 760 mmHg 56%
11:00 +25°C° 0 mm 1 m/S 760 mmHg 54%
12:00 +26°C° 0 mm 1 m/S 760 mmHg 52%
13:00 +26°C° 0 mm 1 m/S 759 mmHg 50%
14:00 +26°C° 0 mm 1 m/S 759 mmHg 50%
15:00 +26°C° 0 mm 1 m/S 759 mmHg 49%
16:00 +27°C° 0 mm 1 m/S 759 mmHg 49%
17:00 +26°C° 0 mm 1 m/S 759 mmHg 52%
18:00 +25°C° 0 mm 1 m/S 758 mmHg 56%
19:00 +25°C° 0 mm 1 m/S 758 mmHg 59%
20:00 +23°C° 0 mm 1 m/S 759 mmHg 64%
21:00 +22°C° 0 mm 1 m/S 759 mmHg 68%
22:00 +21°C° 0 mm 1 m/S 759 mmHg 73%
23:00 +20°C° 0 mm 1 m/S 759 mmHg 76%
Mehr zeigen